TimeCDT,TemperatureF,Dew PointF,Humidity,Sea Level PressureIn,VisibilityMPH,Wind Direction,Wind SpeedMPH,Gust SpeedMPH,PrecipitationIn,Events,Conditions,WindDirDegrees,DateUTC
12:53 AM,75.9,21.0,13,29.65,10.0,WSW,10.4,-,N/A,,Clear,250,2013-05-17 05:53:00
1:53 AM,73.9,21.9,14,29.65,10.0,West,9.2,-,N/A,,Clear,260,2013-05-17 06:53:00
2:53 AM,72.0,21.9,15,29.65,10.0,West,9.2,-,N/A,,Clear,270,2013-05-17 07:53:00
3:53 AM,72.0,21.9,15,29.65,10.0,West,8.1,-,N/A,,Clear,280,2013-05-17 08:53:00
4:53 AM,70.0,23.0,17,29.66,10.0,Variable,3.5,-,N/A,,Clear,0,2013-05-17 09:53:00
5:53 AM,66.9,24.1,20,29.68,10.0,South,3.5,-,N/A,,Clear,190,2013-05-17 10:53:00
6:53 AM,64.0,27.0,25,29.70,10.0,SSW,3.5,-,N/A,,Clear,210,2013-05-17 11:53:00
7:53 AM,70.0,28.9,22,29.73,10.0,South,8.1,-,N/A,,Clear,190,2013-05-17 12:53:00
8:53 AM,77.0,30.0,18,29.74,10.0,SSW,10.4,-,N/A,,Clear,210,2013-05-17 13:53:00
9:53 AM,87.1,30.0,13,29.74,10.0,SW,9.2,-,N/A,,Clear,230,2013-05-17 14:53:00
10:53 AM,91.9,28.0,10,29.73,10.0,SW,8.1,-,N/A,,Clear,220,2013-05-17 15:53:00
11:53 AM,96.1,25.0,8,29.74,10.0,SSW,10.4,-,N/A,,Clear,210,2013-05-17 16:53:00
12:53 PM,98.1,26.1,8,29.73,10.0,SW,13.8,20.7,N/A,,Clear,230,2013-05-17 17:53:00
1:53 PM,100.4,24.8,7,29.87,10.0,WSW,11.5,33.4,N/A,,Clear,250,2013-05-17 18:53:00
2:53 PM,100.9,26.1,7,29.69,10.0,WSW,10.4,18.4,N/A,,Clear,240,2013-05-17 19:53:00
3:53 PM,102.0,28.0,7,29.67,10.0,SSW,15.0,24.2,N/A,,Clear,210,2013-05-17 20:53:00
4:53 PM,100.9,28.0,8,29.65,10.0,South,12.7,21.9,N/A,,Clear,170,2013-05-17 21:53:00
5:53 PM,100.0,28.9,8,29.64,10.0,South,12.7,-,N/A,,Clear,180,2013-05-17 22:53:00
6:53 PM,99.0,32.0,10,29.64,10.0,South,8.1,-,N/A,,Clear,190,2013-05-17 23:53:00
7:53 PM,97.0,30.9,10,29.64,10.0,South,12.7,-,N/A,,Clear,170,2013-05-18 00:53:00
8:53 PM,93.0,32.0,12,29.65,10.0,SSE,12.7,-,N/A,,Clear,160,2013-05-18 01:53:00
9:53 PM,89.1,35.1,15,29.66,10.0,SSE,15.0,-,N/A,,Clear,160,2013-05-18 02:53:00
10:53 PM,88.0,43.0,21,29.67,10.0,South,12.7,-,N/A,,Clear,170,2013-05-18 03:53:00
11:53 PM,86.0,46.9,26,29.69,10.0,South,10.4,-,N/A,,Clear,180,2013-05-18 04:53:00